Skip Page Navigation
NASA JPL Caltech
NASA Logo - Jet Propulsion Laboratory + View the NASA Portal
+ Center for Near-Earth Object Studies
JPL Home Earth Solar System Stars & Galaxies Technology
JPL Solar System Dynamics
BODIES ORBITS EPHEMERIDES TOOLS PHYSICAL DATA DISCOVERY FAQ SITE MAP
JPL Small-Body Database Browser
Search: [ help ]  
187524 (2006 UD34)
Classification: Main-belt Asteroid          SPK-ID: 2187524
Ephemeris | Orbit Diagram | Orbital Elements | Mission Design | Physical Parameters | Discovery Circumstances ]

[ show orbit diagram ]
Orbital Elements at Epoch 2459200.5 (2020-Dec-17.0) TDB
Reference: JPL 11 (heliocentric ecliptic J2000)
 Element Value Uncertainty (1-sigma)   Units 
e .1154031077836013 3.0829e-08  
a 2.479449023278612 1.5008e-08 au
q 2.193312900401245 7.3593e-08 au
i 2.501837962188982 9.2219e-06 deg
node 61.907840110282 8.9404e-05 deg
peri 78.22669837795246 0.00010372 deg
M 133.8898744190875 5.046e-05 deg
tp 2458670.133070852510
(2019-Jul-05.63307085)
0.00019834 TDB
period 1426.038341745408
3.90
1.2947e-05
3.545e-08
d
yr
n .2524476302364885 2.292e-09 deg/d
Q 2.765585146155978 1.674e-08 au
  Orbit Determination Parameters
   # obs. used (total)      238  
   data-arc span      6454 days (17.67 yr)  
   first obs. used      2002-10-10  
   last obs. used      2020-06-11  
   planetary ephem.      DE431  
   SB-pert. ephem.      SB431-N16  
   condition code      0  
   norm. resid. RMS      .61343  
   source      ORB  
   producer      Otto Matic  
   solution date      2020-Nov-12 07:50:04  

Additional Information
 Earth MOID = 1.20793 au 
 Jupiter MOID = 2.24702 au 
 T_jup = 3.469 
[ show covariance matrix ]

Ephemeris | Orbit Diagram | Orbital Elements | Mission Design | Physical Parameters | Discovery Circumstances ]

Physical Parameter Table
Parameter Symbol Value Units Sigma Reference Notes
absolute magnitude H 17.54   n/a E2021B55  

187524 (2006 UD34)          Discovered 2006-Oct-16 by Spacewatch at Kitt Peak
Reference: 20080520/Numbers.arcLast Updated: 2008-05-22
Ephemeris | Orbit Diagram | Orbital Elements | Mission Design | Physical Parameters | Discovery Circumstances ]
ABOUT SSD CREDITS/AWARDS PRIVACY/COPYRIGHT GLOSSARY LINKS
FirstGov 2021-Apr-11 14:06 UT
(server date/time)  
NASA Home Page
Site Manager:   Ryan S. Park
Webmaster  Alan B. Chamberlin